TimeEDT,TemperatureF,Dew PointF,Humidity,Sea Level PressureIn,VisibilityMPH,Wind Direction,Wind SpeedMPH,Gust SpeedMPH,PrecipitationIn,Events,Conditions,WindDirDegrees,DateUTC
12:53 AM,46.9,36.0,66,30.28,10.0,North,9.2,-,N/A,,Clear,10,2013-04-23 04:53:00
1:53 AM,48.9,33.1,54,30.26,10.0,NNE,10.4,-,N/A,,Clear,20,2013-04-23 05:53:00
2:53 AM,48.0,32.0,54,30.24,10.0,NNE,9.2,-,N/A,,Clear,20,2013-04-23 06:53:00
3:53 AM,46.0,32.0,58,30.23,10.0,NNE,9.2,-,N/A,,Clear,20,2013-04-23 07:53:00
4:53 AM,46.0,32.0,58,30.23,10.0,NNE,10.4,-,N/A,,Clear,30,2013-04-23 08:53:00
5:53 AM,46.0,32.0,58,30.23,10.0,NNE,8.1,-,N/A,,Clear,20,2013-04-23 09:53:00
6:53 AM,45.0,32.0,60,30.24,10.0,NNE,6.9,-,N/A,,Clear,20,2013-04-23 10:53:00
7:53 AM,48.9,32.0,52,30.23,10.0,NE,11.5,-,N/A,,Clear,40,2013-04-23 11:53:00
8:53 AM,53.1,36.0,52,30.26,10.0,NE,12.7,-,N/A,,Clear,50,2013-04-23 12:53:00
9:53 AM,55.9,37.9,51,30.24,10.0,NE,11.5,-,N/A,,Clear,50,2013-04-23 13:53:00
10:53 AM,59.0,41.0,51,30.26,10.0,NNE,10.4,-,N/A,,Clear,20,2013-04-23 14:53:00
11:53 AM,63.0,43.0,48,30.25,10.0,NNE,8.1,-,N/A,,Clear,20,2013-04-23 15:53:00
12:53 PM,66.0,43.0,43,30.21,10.0,Variable,3.5,-,N/A,,Clear,0,2013-04-23 16:53:00
1:53 PM,68.0,43.0,40,30.19,10.0,South,5.8,-,N/A,,Clear,170,2013-04-23 17:53:00
2:53 PM,70.0,44.1,39,30.16,10.0,Variable,5.8,-,N/A,,Clear,0,2013-04-23 18:53:00
3:53 PM,72.0,43.0,35,30.14,10.0,ESE,10.4,-,N/A,,Clear,120,2013-04-23 19:53:00
4:53 PM,72.0,42.1,34,30.12,10.0,SE,6.9,-,N/A,,Clear,130,2013-04-23 20:53:00
5:53 PM,73.0,43.0,34,30.11,10.0,South,6.9,-,N/A,,Clear,190,2013-04-23 21:53:00
6:53 PM,71.1,41.0,34,30.12,10.0,South,5.8,-,N/A,,Clear,180,2013-04-23 22:53:00
7:53 PM,69.1,43.0,39,30.11,10.0,SE,4.6,-,N/A,,Clear,130,2013-04-23 23:53:00
8:53 PM,66.9,44.1,44,30.12,10.0,Calm,Calm,-,N/A,,Clear,0,2013-04-24 00:53:00
9:53 PM,64.9,45.0,48,30.13,10.0,SSW,4.6,-,N/A,,Clear,200,2013-04-24 01:53:00
10:53 PM,63.0,48.0,58,30.14,10.0,South,8.1,-,N/A,,Clear,180,2013-04-24 02:53:00
11:53 PM,59.0,48.0,67,30.14,10.0,SSE,3.5,-,N/A,,Clear,160,2013-04-24 03:53:00